Location: Ceske Budejovice
(48.9830°N, 14.4670°E)
Time: 01:21:46
(UTC+02:00)

DX 1 - Pass Details

Date: 29 August 2019
Orbit: 620 x 630 km, 98.4° (Epoch: 21 September)

Event Time Altitude Azimuth Distance (km) Brightness Sun altitude
Rises 04:16:38 0° 160° (SSE) 2,885 ? -17.8°
Reaches altitude 10° 04:18:48 10° 159° (SSE) 1,984 ? -17.5°
Maximum altitude 04:23:07 78° 74° (ENE) 641 ? -17.0°
Drops below altitude 10° 04:27:28 10° 348° (NNW) 2,005 ? -16.4°
Sets 04:29:40 0° 347° (NNW) 2,919 ? -16.1°
